Quincy, IL

1:55 AM CST on November 12, 2019 (GMT -0600)
Quincy Regional-Baldwin

Weather History for KUIN - July, 2019

Change the Weather History Date:

Friday, July 26, 2019

  Actual Average Record
Temperature  
Mean Temperature 77 °F 76 °F  
Max Temperature 87 °F 86 °F 107 °F (1934)
Min Temperature 68 °F 66 °F 51 °F (1962)
Degree Days  
Heating Degree Days 0 0  
Month to date heating degree days 0  
Since 1 June heating degree days 16  
Since 1 July heating degree days 0  
Cooling Degree Days 12 11  
Month to date cooling degree days 286  
Year to date cooling degree days 599  
Since 1 June cooling degree days 513  
Growing Degree Days 27 (Base 50)    
Moisture  
Dew Point 63 °F    
Average Humidity 65    
Maximum Humidity 90    
Minimum Humidity 46    
Precipitation  
Precipitation 0.01 in 0.12 in 2.15 in (1932)
Month to date precipitation 3.44  
Year to date precipitation 21.52  
Sea Level Pressure  
Sea Level Pressure 30.14 in    
Wind  
Wind Speed 8 mph (South)    
Max Wind Speed 16 mph    
Max Gust Speed 22 mph    
Visibility 10 miles    
Events Rain    
T = Trace of Precipitation, MM = Missing Value Source: NWS Daily Summary

Daily Weather History Graph

Daily Weather History Graph

Search for Another Location

Airport or City:

Astronomy

Jul. 26, 2019 Rise Set
Actual Time 5:57 AM CDT 8:24 PM CDT
Civil Twilight 5:26 AM CDT 8:55 PM CDT
Nautical Twilight 4:48 AM CDT 9:33 PM CDT
Astronomical Twilight 4:06 AM CDT 10:15 PM CDT
Moon 1:10 AM CDT (7/26) 3:10 PM CDT (7/26)
Length of Visible Light 15h 28m
Length of Day
14h 26m
Waning Crescent, 34% of the Moon is Illuminated
Jul 26
Waning Crescent
Jul 31
New
Aug 7
First Quarter
Aug 15
Full
Aug 23
Last Quarter

Hourly Weather History & Observations

Time (CDT) Temp. Heat Index Dew Point Humidity Pressure Visibility Wind Dir Wind Speed Gust Speed Precip Events Conditions
12:54 AM 72.0 °F - 61.0 °F 68% 30.13 in 10.0 mi SSE 6.9 mph - N/A   Clear
1:54 AM 71.1 °F - 61.0 °F 70% 30.13 in 10.0 mi SSE 5.8 mph - N/A   Clear
2:54 AM 68.0 °F - 62.1 °F 81% 30.13 in 10.0 mi SE 6.9 mph - N/A   Clear
3:54 AM 70.0 °F - 62.1 °F 76% 30.13 in 10.0 mi SSE 4.6 mph - N/A   Clear
4:54 AM 70.0 °F - 63.0 °F 78% 30.14 in 10.0 mi SSE 4.6 mph - N/A   Clear
5:54 AM 70.0 °F - 63.0 °F 78% 30.14 in 10.0 mi South 6.9 mph - N/A   Clear
6:54 AM 68.0 °F - 64.9 °F 90% 30.15 in 8.0 mi South 5.8 mph - 0.01 in Rain Light Rain
7:54 AM 70.0 °F - 64.0 °F 81% 30.17 in 9.0 mi South 6.9 mph - 0.00 in   Mostly Cloudy
8:54 AM 72.0 °F - 64.0 °F 76% 30.19 in 10.0 mi South 5.8 mph - N/A   Partly Cloudy
9:54 AM 75.0 °F - 64.9 °F 71% 30.19 in 10.0 mi South 10.4 mph - N/A   Clear
10:54 AM 77.0 °F - 66.0 °F 69% 30.18 in 10.0 mi South 6.9 mph - N/A   Clear
11:54 AM 81.0 °F 82.7 °F 64.9 °F 58% 30.17 in 10.0 mi South 11.5 mph - N/A   Clear
12:54 PM 84.0 °F 85.8 °F 64.9 °F 53% 30.16 in 10.0 mi South 12.7 mph - N/A   Clear
1:54 PM 86.0 °F 86.8 °F 63.0 °F 46% 30.15 in 10.0 mi SW 10.4 mph 21.9 mph N/A   Clear
2:54 PM 84.0 °F 85.4 °F 64.0 °F 51% 30.14 in 10.0 mi SSW 12.7 mph - N/A   Scattered Clouds
3:54 PM 84.9 °F 85.4 °F 62.1 °F 46% 30.13 in 10.0 mi SSW 16.1 mph - N/A   Partly Cloudy
4:54 PM 84.9 °F 85.4 °F 62.1 °F 46% 30.12 in 10.0 mi SSW 12.7 mph - N/A   Clear
5:54 PM 84.0 °F 84.5 °F 62.1 °F 47% 30.11 in 10.0 mi SSW 10.4 mph - N/A   Clear
6:54 PM 82.0 °F 83.0 °F 62.1 °F 51% 30.12 in 10.0 mi SSW 10.4 mph - N/A   Clear
7:54 PM 80.1 °F 81.7 °F 64.0 °F 58% 30.12 in 10.0 mi South 8.1 mph - N/A   Clear
8:54 PM 75.9 °F - 64.0 °F 67% 30.13 in 10.0 mi South 6.9 mph - N/A   Partly Cloudy
9:54 PM 75.9 °F - 64.0 °F 67% 30.13 in 10.0 mi South 6.9 mph - N/A   Mostly Cloudy
10:54 PM 73.9 °F - 63.0 °F 68% 30.13 in 10.0 mi South 6.9 mph - N/A   Clear
11:54 PM 72.0 °F - 63.0 °F 73% 30.14 in 10.0 mi South 5.8 mph - N/A   Mostly Cloudy